Regional Weather Roundup
Issued by NWS

Home | Current Version | Previous Version | Graphics & Text | Print | Product List | Glossary On
Versions: 1 2 3 4 5 6 7 8 9 10 11 12 13 14 15 16 17 18 19 20 21 22 23 24 25 26 27 28 29 30 31 32 33 34 35 36 37 38 39 40 41 42 43 44 45 46 47 48 49 50
000
ASUS43 KMKX 190621
RWRWI

WISCONSIN REGIONAL WEATHER ROUNDUP
NATIONAL WEATHER SERVICE MILWAUKEE/SULLIVAN WI
100 AM CDT SAT AUG 19 2017

NOTE: "FAIR" INDICATES FEW OR NO CLOUDS BELOW 12,000 FEET WITH NO
SIGNIFICANT WEATHER AND/OR OBSTRUCTIONS TO VISIBILITY.

WIZ001-002-006>008-014>016-023>028-190700-
NORTHWEST WISCONSIN

CITY           SKY/WX    TMP DP  RH WIND       PRES   REMARKS
SUPERIOR ARPT    N/A     59  57  94 SW7       29.87S
6HR MIN TEMP:  59; 6HR MAX TEMP:  69;

ASHLAND        CLOUDY    64  60  87 SW10      29.86S
6HR MIN TEMP:  62; 6HR MAX TEMP:  69;

HAYWARD        CLOUDY    58  57  97 SW3       29.90F FOG
6HR MIN TEMP:  55; 6HR MAX TEMP:  68;

SIREN          FOG       60  59  97 SW3       29.91F VSB 1
6HR MIN TEMP:  60; 6HR MAX TEMP:  70;

CUMBERLAND     CLEAR     59  57  94 SW6       29.92F
RICE LAKE      FOG       57  56  97 CALM      29.93F VSB<1/4
6HR MIN TEMP:  57; 6HR MAX TEMP:  68;

CHETEK         FOG       60  60 100 CALM      29.92F VSB 1/2
6HR MIN TEMP:  59; 6HR MAX TEMP:  68;

LADYSMITH      MOCLDY    62  61  97 CALM      29.93S FOG
6HR MIN TEMP:  62; 6HR MAX TEMP:  68;

EAU CLAIRE     CLEAR     61  59  93 CALM      29.92R
6HR MIN TEMP:  61; 6HR MAX TEMP:  68;

MENOMONIE      CLEAR     60  59  96 CALM      29.93R FOG
6HR MIN TEMP:  60; 6HR MAX TEMP:  68;

NEW RICHMOND   FOG       59  59  99 CALM      29.93F VSB 1/2
6HR MIN TEMP:  58; 6HR MAX TEMP:  71;

OSCEOLA        CLEAR     58  58 100 CALM      29.95S
6HR MIN TEMP:  57; 6HR MAX TEMP:  73;

$$

WIZ003>005-009-010-017-018-190700-
NORTH CENTRAL WISCONSIN

CITY           SKY/WX    TMP DP  RH WIND       PRES   REMARKS
MANITOWISH WTR FOG       55  55 100 CALM      29.90R VSB 1
6HR MIN TEMP:  52; 6HR MAX TEMP:  64;

ARBOR VITAE    CLOUDY    59  58  96 CALM      29.90R
6HR MIN TEMP:  57; 6HR MAX TEMP:  65;

WOODRUFF       CLOUDY    59  58  96 CALM      29.90R
6HR MIN TEMP:  57; 6HR MAX TEMP:  65;

RHINELANDER    CLOUDY    57  57 100 W3        29.91S
6HR MIN TEMP:  55; 6HR MAX TEMP:  65; 6HR PCP: TRACE;

EAGLE RIVER    CLOUDY    51  51 100 CALM      29.89F
6HR MIN TEMP:  51; 6HR MAX TEMP:  64;

LAND O LAKES   PTCLDY    53  53 100 CALM      29.90F
6HR MIN TEMP:  51; 6HR MAX TEMP:  63;

PHILLIPS       CLEAR     59  59 100 CALM      29.91R
6HR MIN TEMP:  59; 6HR MAX TEMP:  65;

TOMAHAWK         N/A     56  56  97 CALM      29.91S
6HR MIN TEMP:  53; 6HR MAX TEMP:  64;

MEDFORD        FOG       61  61  99 W8        29.93R VSB 1/4
6HR MIN TEMP:  61; 6HR MAX TEMP:  65;

MERRILL        CLOUDY    57  57 100 CALM      29.91F
$$

WIZ029-030-035-036-043>047-190700-
CENTRAL WISCONSIN

CITY           SKY/WX    TMP DP  RH WIND       PRES   REMARKS
WAUSAU         CLOUDY    62  61  96 W3        29.90S FOG
6HR MIN TEMP:  62; 6HR MAX TEMP:  67;

MOSINEE        CLOUDY    61  61 100 W5        29.92S FOG
MARSHFIELD     CLOUDY    62  59  90 W7        29.91F FOG
6HR MIN TEMP:  61; 6HR MAX TEMP:  66; 6HR PCP: TRACE;

STEVENS POINT  CLOUDY    62  62 100 CALM      29.91F
6HR MIN TEMP:  62; 6HR MAX TEMP:  66;

WAUPACA        CLOUDY    66  65  96 W3        29.91S
6HR MIN TEMP:  66; 6HR MAX TEMP:  71;

WAUTOMA        CLOUDY    64  63  96 W6          N/A
6HR MIN TEMP:  64; 6HR MAX TEMP:  69;

WISC RAPIDS    CLOUDY    64  63  96 W3        29.92F
6HR MIN TEMP:  64; 6HR MAX TEMP:  66; 6HR PCP: TRACE;

CAMP DOUGLAS   CLOUDY    57  57 100 W5        29.91F
6HR MIN TEMP:  58; 6HR MAX TEMP:  66;

$$

WIZ011>013-019>022-031-037>040-048>050-190700-
NORTHEAST WISCONSIN

CITY           SKY/WX    TMP DP  RH WIND       PRES   REMARKS
ANTIGO         PTCLDY    54  54 100 CALM      29.91F
6HR MIN TEMP:  53; 6HR MAX TEMP:  65;

SHAWANO        CLOUDY    64  60  87 CALM      29.89S
6HR MIN TEMP:  63; 6HR MAX TEMP:  70;

OCONTO         CLOUDY    57  56  95 CALM      29.88R
6HR MIN TEMP:  57; 6HR MAX TEMP:  69;

STURGEON BAY   CLOUDY    62  57  83 SW3       29.88S
6HR MIN TEMP:  59; 6HR MAX TEMP:  68;

GREEN BAY      CLOUDY    62  62 100 W5        29.89S
6HR MIN TEMP:  62; 6HR MAX TEMP:  69;

MANITOWOC      LGT RAIN  63  60  90 W3        29.90R
6HR MIN TEMP:  63; 6HR MAX TEMP:  70; 6HR PCP: TRACE;

APPLETON       CLOUDY    63  61  94 W7        29.89S
CLINTONVILLE   CLOUDY    61  59  94 CALM      29.90R
OSHKOSH        CLOUDY    65  62  90 W3        29.90R
6HR MIN TEMP:  65; 6HR MAX TEMP:  70;

$$

WIZ032>034-041-042-053>061-190700-
SOUTHWEST WISCONSIN

CITY           SKY/WX    TMP DP  RH WIND       PRES   REMARKS
LA CROSSE      MOCLDY    64  62  93 SE5       29.92F
6HR MIN TEMP:  63; 6HR MAX TEMP:  73;

SPARTA         FOG       54  54 100 CALM      29.94S VSB 1/4
6HR MIN TEMP:  54; 6HR MAX TEMP:  66;

VIROQUA        MOCLDY    59  59 100 NW3       29.95S
6HR MIN TEMP:  58; 6HR MAX TEMP:  66;

BOSCOBEL       FOG       60  59  96 CALM      29.95R VSB 1/4
6HR MIN TEMP:  58; 6HR MAX TEMP:  71;

PRAIRIE DU CHI CLOUDY    58  56  95 CALM      29.95R
6HR MIN TEMP:  57; 6HR MAX TEMP:  71;

PLATTEVILLE    CLEAR     58  58 100 NW3       29.95S
6HR MIN TEMP:  58; 6HR MAX TEMP:  71;

$$

WIZ056-057-062-063-064-067-068-190700-
SOUTH CENTRAL WISCONSIN

CITY           SKY/WX    TMP DP  RH WIND       PRES   REMARKS
REEDSBURG      CLEAR     61  61 100 CALM      29.93S
6HR MIN TEMP:  60; 6HR MAX TEMP:  68;

BARABOO/DELLS  CLEAR     61  59  93 CALM      29.93S
6HR MIN TEMP:  61; 6HR MAX TEMP:  68;

LONE ROCK      FOG       60  60 100 W3        29.94R VSB 3/4
6HR MIN TEMP:  58; 6HR MAX TEMP:  70;

MINERAL POINT  CLEAR     59  59 100 CALM      29.95R FOG
MADISON        PTCLDY    62  60  93 CALM      29.93R
6HR MIN TEMP:  61; 6HR MAX TEMP:  71;

MIDDLETON      CLEAR     62  62 100 W3        29.94R
6HR MIN TEMP:  62; 6HR MAX TEMP:  70;

WATERTOWN      CLOUDY    64  64  99 W3        29.91S
6HR MIN TEMP:  64; 6HR MAX TEMP:  71;

MONROE         CLEAR     63  59  88 NW7       29.93S
JANESVILLE     CLEAR     61  61 100 NW5       29.92S
$$

WIZ051-052-058>065-066-070>072-190700-
SOUTHEAST WISCONSIN

CITY           SKY/WX    TMP DP  RH WIND       PRES   REMARKS
MILWAUKEE      MOCLDY    69  61  75 NW8       29.90R
6HR MIN TEMP:  69; 6HR MAX TEMP:  77;

WAUKESHA       CLOUDY    61  59  94 W6        29.93R
MILWAUKEE/TIMM MOCLDY    64  55  72 NW7       29.91R
RACINE         PTCLDY    64  60  87 W6        29.91S
6HR MIN TEMP:  64; 6HR MAX TEMP:  75;

KENOSHA        CLEAR     61  58  90 W5        29.91R
6HR MIN TEMP:  61; 6HR MAX TEMP:  75;

FOND DU LAC    CLOUDY    65  61  87 W6        29.91R
6HR MIN TEMP:  65; 6HR MAX TEMP:  71;

SHEBOYGAN      CLOUDY    64  62  93 NW3       29.90R
6HR MIN TEMP:  64; 6HR MAX TEMP:  71; 6HR PCP: TRACE;

WEST BEND      MOCLDY    64  61  88 NW5       29.91S
JUNEAU         CLOUDY    64  61  89 CALM      29.93S
6HR MIN TEMP:  64; 6HR MAX TEMP:  69;

$$

LSZ147-162-190700-
LAKE SUPERIOR

STATION/POSITION TIME  TEMP    WIND        PRES    WAVE
                       AIR SEA DIR/SP/G            HT/PER
                 (UTC) (F)     (DEG/KT/KT) (MB)    (FT/S)
W MID LAKE BUOY  0550   62 60  240/ 14/ 16 1009.0F   1/ 4
DEVILS ISLAND    0600   64     240/ 17/ 20 1009.9F
SAXON HARBOR     0530   65     190/  7/ 10 1010.5R
$$

LMZ867-665-643>646-190700-
LAKE MICHIGAN

STATION/POSITION TIME  TEMP    WIND        PRES    WAVE
                       AIR SEA DIR/SP/G            HT/PER
                 (UTC) (F)     (DEG/KT/KT) (MB)    (FT/S)
S GREEN BAY BUOY 0600   68 70  260/ 10/ 12 1011.6
N MID LAKE BUOY  0550   66 67  290/ 14/ 16 1010.9R   1/


USA.gov is the U.S. government's official web portal to all federal, state and local government web resources and services.